Simultaneous Nadir Overpasses (SNOs) Predictions

Prediction of SNOs between NOAA-18 and METOP-C Satellite Orbit:

Table of predicted SNOs for the next 14.0 days since TLE Epoch: 1/5/2025
Index Date (NOAA-18) Time (NOAA-18) Lat,Lon (NOAA-18) SZA (NOAA-18 ) Date (METOP-C) Time (METOP-C) Lat,Lon (METOP-C) SZA (METOP-C ) Distance(km) Time Diff (sec)
1 01/12/2025 22:49:12 -81.13, 82.62 72.80 01/12/2025 22:50:18 -81.14, 82.80 72.74 3.11 66
2 01/12/2025 23:40:14 81.14,-109.64 107.27 01/12/2025 23:40:59 81.13,-109.80 107.27 2.78 45
3 01/13/2025 00:31:07 -81.14, 57.51 72.76 01/13/2025 00:31:39 -81.13, 57.63 72.73 2.22 32
4 01/13/2025 01:22:11 81.13,-135.51 107.20 01/13/2025 01:22:21 81.14,-135.34 107.23 3.02 10
5 01/13/2025 02:13:03 -81.14, 32.02 72.77 01/13/2025 02:13:01 -81.14, 32.09 72.77 1.14 2
6
